Terminal Aerodrome Forecast
Issued by NWS Boston, MA

Home | Current Version | Previous Version | Text Only | Print | Product List | Glossary On
Versions: 1 2 3 4 5 6 7 8 9 10 11 12 13 14 15 16 17 18 19 20 21 22 23 24 25 26 27 28 29 30 31 32 33 34 35 36 37 38 39 40 41 42 43 44 45 46 47 48 49 50
000
FTUS41 KBOX 220539
TAFBDL
TAF
KBDL 220539Z 2206/2312 25005KT P6SM SCT025 BKN100
     FM220900 27008KT P6SM SCT250
     FM221500 29014G25KT P6SM SCT040
     FM222000 30012KT P6SM SCT250
     FM230200 31007KT P6SM FEW035=

USA.gov is the U.S. government's official web portal to all federal, state and local government web resources and services.